SCP
1 1 0 0 0 0 0 0 0 0 0 0 0 0 0 0 0 0 0 0 0 0 0 0 0 0 0 0 0 0 0 0 0 0 0 0 0 0 0 0 0 0 0
1 1 1 0 1 0 0 0 0 0 0 0 0 0 0 0 0 0 0 0 0 0 0 0 0 0 0 0 0 0 0 0 0 0 0 0 0 0 0 0 0 0 0
1 1 1 1 1 1 0 0 0 0 0 0 0 0 0 0 0 0 0 0 0 0 0 0 0 0 0 0 0 0 0 0 0 0 0 0 0 0 0 0 0 0 0
1 1 1 1 1 1 0 0 0 0 0 0 0 0 0 0 0 0 0 0 0 0 0 0 0 0 0 0 0 0 0 0 0 0 0 0 0 0 0 0 0 0 0
1 1 1 1 1 1 0 0 0 0 0 0 0 0 0 0 0 0 0 0 0 0 0 0 0 0 0 0 0 0 0 0 0 0 0 0 0 0 0 0 0 0 0
1 2 2 1 1 1 1 1 0 0 0 0 0 0 0 0 0 1 1 0 0 0 0 0 0 0 0 0 0 0 0 0 0 0 0 0 0 0 0 0 0 0 0
1 1 1 1 1 1 1 1 0 0 0 0 0 0 0 0 0 1 1 1 0 0 0 0 0 0 0 0 0 0 0 0 0 0 0 0 0 0 0 0 0 0 0
0 1 1 1 1 1 1 1 1 0 0 0 0 0 0 0 0 1 1 1 0 0 0 0 0 0 0 0 0 0 0 0 0 0 0 0 0 0 0 0 0 0 0
0 0 0 0 0 0 1 1 1 0 0 0 0 0 0 0 0 0 0 0 0 0 0 0 0 0 0 0 0 0 0 0 0 0 0 0 0 0 0 0 0 0 0
0 0 0 0 0 0 0 0 0 0 0 0 0 0 0 0 0 0 0 0 0 0 0 0 0 0 0 0 0 0 0 0 0 0 0 0 0 0 0 0 0 0 0
0 0 0 0 0 0 0 0 0 0 0 0 0 0 0 0 0 0 0 0 0 0 0 0 0 0 0 0 0 0 0 0 0 0 0 0 0 0 0 0 0 0 0
0 0 0 0 0 0 0 0 0 0 0 0 0 0 0 0 0 0 0 0 0 0 0 0 0 0 0 0 0 0 0 0 0 0 0 0 0 0 0 0 0 0 0
0 0 0 0 0 0 0 0 0 0 0 0 0 0 0 0 0 0 0 0 0 0 0 0 0 0 0 0 0 0 0 0 0 0 0 0 0 0 0 0 0 0 0
0 0 0 0 0 0 0 0 0 0 0 0 0 0 0 0 0 0 0 0 0 0 0 0 0 0 0 0 0 0 0 0 0 0 0 0 0 0 0 0 0 0 0
0 0 0 0 0 0 0 0 0 0 0 0 0 0 0 0 0 0 0 0 0 0 0 0 0 0 0 0 0 0 0 0 0 0 0 0 0 0 0 0 0 0 0
0 0 0 0 0 0 0 0 0 0 0 0 0 0 0 0 0 0 0 0 0 0 0 0 0 0 0 0 0 0 0 0 0 0 0 0 0 0 0 0 0 0 0
0 0 0 0 0 0 0 0 0 0 0 0 0 0 0 0 0 0 0 0 0 0 0 0 0 0 0 0 0 0 0 0 0 0 0 0 0 0 0 0 0 0 0
0 0 0 0 0 0 0 0 0 0 0 0 0 0 0 0 0 0 0 0 0 0 0 0 0 0 0 0 0 0 0 0 0 0 0 0 0 0 0 0 0 0 0
0 0 0 0 0 0 0 0 0 0 0 0 0 0 0 0 0 0 0 0 0 0 0 0 0 0 0 0 0 0 0 0 0 0 0 0 0 0 0 0 0 0 0
0 0 0 0 0 0 0 0 0 0 0 0 0 0 0 0 0 0 0 0 0 0 0 0 0 0 0 0 0 0 0 0 0 0 0 0 0 0 0 0 0 0 0
0 0 0 0 0 0 0 0 0 0 0 0 0 0 0 0 0 0 0 0 0 0 0 0 0 0 0 0 0 0 0 0 0 0 0 0 0 0 0 0 0 0 0
0 0 0 0 0 0 0 0 0 0 0 0 0 0 0 0 0 0 0 0 0 0 0 0 0 0 0 0 0 0 0 0 0 0 0 0 0 0 0 0 0 0 0
0 0 0 0 0 0 0 0 0 0 0 0 0 0 0 0 0 0 0 0 0 0 0 0 0 0 0 0 0 0 0 0 0 0 0 0 0 0 0 0 0 0 0
0 0 0 0 0 0 0 0 0 0 0 0 0 0 0 0 0 0 0 0 0 0 0 0 0 0 0 0 0 0 0 0 0 0 0 0 0 0 0 0 0 0 0
0 0 0 0 0 0 0 0 0 0 0 0 0 0 0 0 0 0 0 0 0 0 0 0 0 0 0 0 0 0 0 0 0 0 0 0 0 0 0 0 0 0 0
0 0 0 0 0 0 0 0 0 0 0 0 0 0 0 0 0 0 0 0 0 0 0 0 0 0 0 0 0 0 0 0 0 0 0 0 0 0 0 0 0 0 0
Wind_Speed
5 4 5 4 4 4 4 4 4 3 3 3 3 3 3 3 3 3 3 3 4 4 4 6 7 6 5 5 4 4 3 3 3 2 2 2 5 6 6 5 4 5 5
4 4 4 4 4 4 4 4 4 4 4 3 3 3 3 3 3 3 3 3 3 4 4 4 5 5 6 5 5 4 3 3 3 2 2 2 4 5 6 6 5 6 4
4 4 4 3 3 3 4 4 4 4 4 4 4 4 4 3 3 3 3 3 3 3 3 4 4 5 6 5 6 5 3 3 3 3 2 2 1 3 3 3 4 3 5
4 4 3 2 2 3 3 3 4 4 5 5 5 5 5 4 4 4 4 3 3 3 3 3 3 4 5 5 5 5 5 4 3 3 2 2 2 2 3 3 3 3 4
3 2 2 1 1 2 3 3 4 4 5 5 5 5 5 4 5 5 5 5 4 3 3 3 3 5 6 5 4 5 5 4 3 3 3 2 3 3 4 4 5 3 3
6 4 2 1 1 2 3 3 3 3 3 4 5 5 5 6 8 11 8 5 5 5 4 4 4 5 8 9 9 9 8 6 5 4 3 4 5 4 4 4 4 3 4
7 5 3 2 2 2 1 1 1 2 2 3 4 5 6 7 10 12 13 6 5 5 5 4 4 5 8 5 7 10 9 11 10 6 5 6 5 6 5 5 6 6 6
7 6 5 4 3 3 3 3 2 1 1 2 3 4 5 7 11 11 12 7 5 5 5 5 6 5 5 7 6 5 6 7 8 7 7 7 7 6 7 7 7 6 2
6 5 5 4 4 4 4 4 2 2 1 1 2 3 4 6 9 10 9 4 3 4 4 4 5 5 8 9 6 6 5 5 7 10 10 10 11 10 8 4 4 4 4
4 4 4 4 4 4 4 3 2 2 2 2 1 1 2 4 6 7 8 3 3 2 2 2 5 6 6 7 6 5 6 5 3 3 5 6 6 6 9 7 6 5 3
3 4 4 4 4 4 4 3 3 3 3 3 2 2 1 2 3 4 7 3 3 3 2 1 1 4 5 5 5 4 6 4 2 3 2 2 2 2 3 4 5 5 5
3 4 4 5 5 5 5 5 5 5 4 4 4 4 3 2 1 3 6 5 4 3 2 1 1 2 2 3 3 4 4 2 1 1 1 1 2 2 2 3 4 4 4
3 3 3 4 5 5 6 6 5 6 5 4 4 4 3 3 3 3 3 3 3 2 1 2 2 3 2 1 1 1 2 2 1 1 1 1 1 1 0 1 1 1 1
3 2 2 3 4 5 5 5 5 6 6 5 5 4 3 4 4 3 2 2 2 2 1 2 3 3 1 1 1 1 1 1 2 1 1 1 0 1 1 1 1 1 1
2 1 1 2 2 3 4 5 5 5 5 4 3 3 3 3 5 4 2 1 1 1 2 2 1 1 0 0 0 0 0 1 1 1 1 1 0 0 0 0 1 1 1
2 1 0 0 1 1 2 3 5 5 8 9 8 5 4 5 5 5 5 4 2 3 3 2 1 1 0 0 0 0 0 1 1 1 1 1 0 1 1 0 0 1 1
2 1 0 0 0 1 1 1 1 3 5 8 9 8 7 7 8 7 7 7 7 5 4 3 2 2 1 1 1 1 1 0 1 1 1 0 0 1 1 1 1 1 2
2 1 1 0 0 0 1 1 1 1 2 3 5 7 8 8 9 9 7 7 6 5 4 3 3 3 2 2 2 2 2 2 1 1 1 1 0 0 1 1 2 2 2
3 1 1 1 1 1 2 2 2 2 2 2 3 4 7 7 8 10 7 5 4 4 4 4 4 3 3 3 3 2 2 2 2 2 2 2 1 1 1 1 2 3 2
2 3 2 1 1 2 2 2 2 2 2 2 3 3 4 4 4 5 5 4 4 4 4 4 4 4 4 3 3 3 3 3 3 2 2 2 2 1 1 2 2 2 2
3 1 2 2 2 2 2 2 2 2 2 2 2 3 3 3 3 4 4 4 4 3 3 3 3 4 4 3 3 3 4 3 3 3 3 3 2 2 2 2 2 3 3
3 2 2 2 2 2 2 2 3 3 2 2 1 2 5 3 3 3 3 4 4 4 4 4 4 4 4 4 4 4 3 3 3 3 3 3 3 3 2 2 2 3 3
4 3 2 2 2 3 3 2 3 2 2 2 1 2 2 3 3 3 3 4 4 4 4 4 4 4 4 4 4 3 3 3 3 4 4 3 3 3 3 3 3 3 3
4 4 4 3 2 2 3 3 2 2 2 2 2 2 2 2 3 3 3 3 4 4 4 4 4 5 6 4 3 3 3 4 4 4 4 4 4 3 3 2 3 3 3
4 4 4 3 3 3 3 3 3 3 2 2 2 2 3 3 3 3 3 3 4 4 5 5 4 4 6 6 6 5 7 8 6 4 3 3 3 4 3 3 2 2 2
4 4 4 3 3 3 3 3 3 3 3 3 3 3 3 3 3 3 3 3 3 3 4 4 5 6 7 5 7 9 9 8 7 5 2 2 3 3 3 2 3 3 3
Wind_Direction
166 161 156 162 161 154 154 168 166 160 157 156 155 147 147 147 149 158 173 171 185 197 200 201 205 191 182 179 173 172 179 168 194 228 212 188 171 175 174 179 187 192 195
166 161 173 169 161 165 173 182 179 175 177 178 171 167 169 163 156 157 165 166 181 195 199 200 204 192 183 175 170 173 178 174 178 200 210 185 184 182 171 179 190 195 196
166 164 177 171 170 188 195 197 194 189 191 190 185 192 195 185 177 174 167 166 178 189 192 194 193 183 178 172 168 171 176 180 172 183 207 201 172 151 146 182 190 194 202
166 161 164 156 200 221 224 212 206 199 199 202 204 207 204 197 191 187 179 176 181 187 186 185 178 176 173 169 170 171 169 171 174 180 194 205 194 154 149 169 188 203 206
121 98 77 84 242 239 230 225 221 212 210 208 209 214 208 201 204 195 190 188 187 192 195 194 193 194 193 187 179 173 169 174 178 191 197 189 188 170 192 185 195 185 212
84 71 74 81 297 272 257 246 237 236 230 210 209 211 211 218 212 200 192 193 191 195 204 209 215 218 218 216 210 197 186 185 192 196 199 204 207 204 189 182 174 166 226
70 68 53 50 19 335 319 328 286 266 244 226 219 212 217 227 222 208 200 189 193 201 205 207 222 224 221 221 229 227 220 216 207 197 206 215 210 206 189 190 191 196 211
56 51 41 40 29 12 14 6 348 327 272 238 233 226 224 232 228 215 201 190 196 207 209 209 218 233 221 210 213 222 229 231 227 223 222 227 224 212 200 202 203 210 212
45 39 30 31 32 25 15 356 341 332 315 281 252 230 227 244 231 215 190 172 192 211 220 217 214 225 235 219 205 220 236 245 244 236 232 237 236 229 207 187 180 180 219
35 33 28 33 37 22 2 346 335 327 312 313 312 258 228 240 237 215 180 163 179 195 227 242 223 219 230 210 195 204 227 242 240 249 243 248 244 237 216 200 192 190 198
22 36 32 28 28 18 3 355 351 356 6 9 13 9 357 237 232 197 168 160 173 171 184 226 248 217 213 206 194 202 226 229 219 229 242 252 248 234 221 210 202 201 205
39 45 34 25 22 21 17 12 12 17 23 19 24 22 13 8 92 166 164 163 158 155 169 186 212 177 171 187 197 218 230 211 180 198 216 243 246 247 238 218 211 212 212
65 58 41 35 31 28 29 23 19 18 21 16 21 24 16 16 27 59 114 136 133 135 164 176 171 151 121 119 224 196 147 138 147 163 208 239 251 255 213 145 133 150 137
81 74 51 49 40 35 33 29 30 21 17 17 21 23 24 22 19 21 43 70 85 88 82 100 109 102 82 358 8 50 115 158 159 173 195 218 26 59 73 95 131 142 166
86 74 56 62 71 57 50 38 31 28 18 19 19 24 28 26 5 12 51 65 90 137 112 91 83 72 16 349 335 294 149 119 121 137 137 134 115 85 83 106 132 153 183
94 61 9 55 99 112 93 61 36 35 34 42 46 47 36 30 22 37 42 43 64 120 109 95 85 77 76 237 189 71 84 114 137 137 132 151 190 231 246 220 202 213 238
140 152 8 11 337 189 177 146 55 14 26 36 36 39 41 33 36 39 43 54 58 78 79 75 70 63 55 57 66 76 59 41 96 102 105 183 247 251 249 247 239 245 256
148 137 107 28 359 102 146 145 131 84 25 2 8 20 26 29 34 41 51 61 51 48 59 63 56 52 48 48 50 48 45 40 47 50 37 2 314 270 266 270 259 253 260
152 153 94 52 57 80 87 91 96 91 64 25 7 3 9 21 35 43 51 60 63 54 49 48 44 40 39 40 41 42 43 39 37 37 28 9 346 323 295 288 281 279 267
164 170 139 96 82 90 94 95 95 91 73 50 29 3 357 31 43 36 41 47 55 53 50 49 42 38 34 35 36 40 43 39 33 32 18 5 354 345 311 299 291 281 267
166 167 130 103 109 122 123 120 121 116 101 73 23 8 42 63 60 55 50 46 49 50 50 51 46 36 32 31 31 38 43 35 26 15 2 349 341 331 313 298 292 286 282
156 162 148 136 131 128 131 129 127 127 124 104 40 28 52 62 62 62 55 47 45 43 43 50 46 35 30 28 26 28 27 20 9 358 344 334 326 317 312 310 311 307 300
150 158 151 140 137 131 125 127 133 139 139 128 99 66 61 70 70 70 65 59 53 48 41 44 46 35 26 27 29 25 13 354 337 327 322 318 318 317 316 314 315 314 313
145 152 153 149 141 139 145 149 148 152 151 142 120 103 94 90 86 82 78 71 64 55 46 42 41 34 27 20 12 5 353 333 319 307 310 309 311 314 317 319 322 320 317
141 147 154 157 155 155 157 155 154 155 154 148 137 122 112 102 95 89 83 76 72 63 52 43 31 21 15 11 3 350 339 336 329 316 303 307 315 321 329 333 333 332 331
145 150 155 157 158 160 161 161 163 159 155 149 140 133 124 114 105 96 87 81 74 63 53 43 31 23 12 1 352 349 348 350 351 349 331 324 339 350 352 353 355 352 344